EHI
0 0 0 0 0 0 0 0 0 0 0 0 0 0 2 6 7 8 11 14 15 13 14 20 27 31 31 31 30 28 26 25 24 19 15 14 12 9 7 6 5 4 4 5
0 0 0 0 0 0 0 0 0 0 0 0 0 1 2 4 6 7 9 12 14 15 18 24 31 34 34 32 31 29 27 26 24 20 17 15 12 9 7 6 5 4 5 6
0 0 0 0 0 0 0 0 0 0 1 1 1 1 1 4 6 7 8 10 14 18 23 29 34 37 34 32 30 28 27 26 25 21 18 15 12 10 9 8 8 7 6 6
0 0 0 0 0 0 0 0 0 0 0 0 0 0 1 4 7 8 9 11 15 20 25 29 33 35 33 30 28 27 25 25 24 21 18 15 13 11 11 11 11 10 8 7
0 0 0 0 0 0 0 0 0 0 0 0 0 0 0 3 7 11 13 14 17 21 24 26 29 31 32 31 29 27 25 23 22 21 18 15 13 12 12 12 12 10 9 7
0 0 0 0 0 0 0 0 0 0 0 0 0 0 1 3 7 13 17 19 20 22 22 24 26 29 31 31 29 26 24 21 19 19 17 14 12 12 13 12 11 9 7 7
0 0 0 0 0 0 0 0 0 0 0 0 0 0 1 3 6 12 17 20 20 20 22 23 25 27 30 30 28 25 22 19 17 16 14 11 10 11 12 11 9 7 6 6
0 0 0 0 0 0 0 0 0 0 0 0 0 0 1 3 6 11 15 17 16 17 20 23 23 23 26 27 26 23 20 18 15 13 9 7 7 8 9 8 7 6 5 4
0 0 0 0 0 0 0 0 0 0 0 0 0 0 1 3 7 10 13 13 12 14 19 21 19 18 20 23 23 21 18 16 13 10 6 4 5 6 6 5 5 4 3 2
0 0 0 0 0 0 0 0 0 0 0 0 0 0 1 4 7 10 11 11 11 14 18 20 18 15 16 19 20 19 16 13 10 7 5 4 4 3 3 3 3 3 1 0
0 0 0 0 0 0 0 0 0 0 0 0 0 0 0 2 5 7 8 9 11 14 18 20 18 16 17 18 19 18 15 11 9 7 6 4 2 1 1 1 1 1 0 0
0 0 0 0 0 0 0 0 0 0 0 0 0 0 0 1 4 6 6 7 10 14 18 20 21 20 19 20 21 19 14 9 7 7 7 5 2 0 0 0 0 0 0 0
0 0 0 0 0 0 0 0 0 0 0 0 0 0 0 2 4 5 5 6 8 13 17 20 22 22 20 20 21 19 13 8 6 5 5 5 3 1 0 0 0 0 0 0
0 0 0 0 0 0 0 1 0 0 0 0 0 0 1 3 4 6 6 7 8 11 15 19 21 21 19 18 17 16 11 7 5 5 5 5 5 4 2 0 0 0 0 0
0 0 0 0 0 0 0 0 0 0 0 0 0 0 1 3 4 6 7 9 10 12 13 16 18 18 17 16 15 13 9 6 5 5 5 5 6 5 3 1 1 0 0 0
0 0 0 0 0 0 0 0 0 0 0 0 0 0 1 2 3 5 7 9 11 12 13 15 16 15 14 14 14 11 7 5 4 4 4 4 4 5 5 4 3 1 1 0
1 0 0 0 0 0 0 0 0 0 0 0 0 0 1 2 3 4 6 9 11 13 13 14 15 14 12 12 10 8 5 4 3 3 3 3 3 4 5 6 5 4 2 1
1 0 0 0 0 0 0 0 0 0 1 1 0 0 1 3 4 4 5 7 10 12 12 12 13 11 10 9 7 5 4 3 3 3 3 3 3 3 4 6 6 6 5 3
1 0 0 0 0 0 0 0 0 1 2 1 0 0 2 4 5 5 5 5 7 9 9 10 9 8 8 7 6 4 3 3 3 3 3 3 3 3 4 5 6 6 6 5
0 0 0 0 0 0 0 0 0 1 1 1 0 1 4 5 5 5 4 4 4 5 6 7 8 8 8 8 7 5 4 3 3 3 3 3 3 3 3 4 5 6 6 6
0 0 0 0 0 0 0 0 0 0 0 0 0 2 5 5 4 4 3 3 3 3 4 7 9 10 10 9 6 4 3 3 3 3 3 3 3 3 3 3 4 4 4 4
0 0 0 0 0 0 0 0 0 0 0 0 0 2 4 4 4 4 3 3 2 1 3 7 10 10 10 8 5 3 3 3 3 3 3 3 3 3 3 3 3 3 3 3
0 0 0 0 0 0 0 0 0 0 0 0 0 1 3 4 4 3 3 3 1 0 2 6 8 8 8 6 4 3 3 3 3 3 3 3 3 3 3 3 3 3 3 3
0 0 0 0 0 0 0 0 0 0 0 0 0 1 3 3 3 3 3 2 1 0 2 5 7 8 7 4 3 3 3 3 3 3 3 3 3 3 3 3 3 3 3 3
0 0 0 0 0 0 0 0 0 0 0 0 1 3 3 3 3 3 3 2 1 1 3 6 7 8 6 3 2 3 3 3 3 3 3 3 3 3 3 3 3 2 2 2
0 0 0 0 0 0 0 1 1 1 0 1 2 4 4 3 3 3 3 1 0 1 4 6 7 7 5 2 2 3 3 3 3 3 3 3 3 3 3 3 2 1 1 1
Wind_Speed
3 3 7 10 9 9 7 8 10 11 9 3 4 4 5 3 5 5 5 6 7 7 6 7 8 8 8 8 8 8 8 7 6 5 4 4 3 3 2 2 3 4 3 3
1 7 12 8 8 8 8 8 9 9 7 3 1 3 4 4 7 8 8 8 8 7 6 7 7 7 7 8 7 7 8 8 7 6 5 4 3 2 2 2 2 3 3 3
10 9 7 7 8 9 9 8 8 8 6 3 1 3 4 3 1 3 5 7 8 11 11 9 9 8 7 7 7 7 7 7 7 6 4 3 2 2 1 1 2 2 4 4
8 10 8 7 9 7 9 9 8 7 3 4 1 3 6 3 1 1 3 5 6 8 9 9 9 8 8 7 6 5 5 6 5 6 6 6 5 4 3 3 2 2 3 3
7 5 6 9 12 9 9 8 7 5 3 2 2 2 6 1 2 3 4 5 7 8 10 9 9 8 7 7 6 6 5 5 5 5 6 6 4 3 2 2 3 2 1 2
9 7 6 9 10 8 6 2 2 2 3 2 4 3 5 3 6 5 4 5 8 9 9 8 7 6 6 6 6 6 6 5 5 5 5 5 6 5 5 4 3 2 1 2
7 8 7 6 6 5 2 4 3 4 2 5 3 2 6 5 4 5 7 6 6 8 9 8 7 7 7 7 7 6 7 5 5 5 4 5 6 6 6 4 4 3 2 2
4 7 6 4 6 6 4 8 7 5 5 4 2 3 4 3 1 3 5 6 6 6 8 8 8 8 8 8 7 7 7 6 5 5 4 4 4 3 3 4 4 4 3 3
4 6 5 4 4 5 3 4 7 6 2 1 3 3 4 4 4 3 3 4 5 7 7 8 8 7 8 7 7 7 7 5 5 4 4 4 3 3 3 3 3 3 3 3
5 4 5 4 2 1 5 5 4 5 4 2 3 2 3 3 1 1 2 2 4 5 7 7 7 7 7 7 6 6 6 5 5 4 4 4 3 3 3 3 3 3 3 3
3 3 5 3 0 2 1 2 3 3 5 5 3 5 5 6 4 3 2 3 4 6 6 7 7 6 6 6 6 6 6 5 4 3 3 3 3 3 3 3 3 3 3 3
1 4 3 5 4 2 3 3 5 4 3 4 4 6 4 5 4 4 3 2 3 5 5 6 7 6 6 6 6 5 5 4 4 3 3 3 3 3 3 3 3 3 3 3
2 4 1 5 5 3 2 1 2 4 4 3 4 6 2 1 2 2 3 2 3 4 4 5 6 6 6 6 5 5 4 4 4 4 4 4 3 3 3 2 2 2 3 3
3 4 5 6 5 1 1 2 1 3 3 3 5 6 3 1 1 1 2 3 4 5 4 5 5 5 5 5 5 5 4 4 4 4 4 3 3 3 3 3 2 2 2 3
5 2 1 2 1 0 1 2 1 1 4 6 5 4 4 3 3 3 4 5 5 5 5 5 5 5 5 5 4 4 4 3 3 3 3 3 3 2 2 2 2 2 2 3
4 2 2 1 1 2 3 3 2 2 1 2 2 2 2 1 2 2 4 5 5 5 4 5 5 5 5 5 5 5 5 4 4 4 3 3 2 2 2 2 2 2 1 1
1 3 2 2 2 2 2 2 1 1 2 1 2 2 1 3 1 2 2 4 5 5 4 4 4 5 5 5 5 5 5 4 4 4 3 2 2 2 2 3 2 2 2 1
4 3 2 1 1 3 5 1 2 4 3 2 2 1 1 1 2 2 2 3 4 3 3 3 3 4 4 3 3 4 5 5 4 4 3 2 2 2 2 2 2 2 2 2
6 6 3 3 2 3 2 1 0 2 1 3 2 2 3 3 4 3 2 1 2 2 2 3 3 4 4 4 4 5 4 4 4 3 3 3 3 2 2 2 2 2 2 2
3 5 5 3 3 4 4 4 2 3 0 3 1 2 2 3 3 2 2 1 2 2 2 2 3 4 5 4 5 6 5 4 4 3 3 3 3 3 2 3 2 1 2 2
2 2 3 3 3 3 3 5 2 2 4 2 1 2 2 1 2 2 1 3 3 2 2 3 4 4 3 3 5 5 5 4 4 3 3 2 2 3 3 2 1 1 1 1
2 2 1 2 2 4 4 3 2 3 2 1 1 2 2 2 2 2 2 3 3 3 2 3 3 3 2 3 4 5 4 3 3 3 2 2 2 2 1 1 1 2 2 2
1 3 3 3 4 3 1 2 1 2 1 0 1 1 3 3 3 2 2 2 2 2 2 2 3 3 2 2 3 4 3 3 3 3 2 2 2 1 1 1 2 1 2 2
3 2 2 2 0 1 1 2 2 2 1 1 1 2 2 3 2 2 1 1 2 1 2 2 3 4 2 1 2 2 2 3 3 3 2 2 2 1 0 0 1 1 2 2
2 2 1 1 1 1 2 2 2 2 3 2 2 2 2 3 2 2 2 2 2 2 1 2 3 3 2 2 1 1 2 3 3 2 2 2 1 1 1 0 0 1 2 3
2 0 1 3 3 2 2 2 1 2 2 2 2 1 1 2 2 2 1 2 3 2 2 2 2 2 2 2 2 1 2 3 4 2 2 2 1 1 1 1 1 3 2 1
Wind_Direction
224 162 226 230 217 218 243 260 269 271 274 277 242 237 237 196 150 155 164 163 163 167 158 145 141 142 139 147 153 159 158 159 153 155 157 156 167 166 165 174 166 164 167 165
301 245 237 234 239 238 248 259 271 284 280 255 243 254 230 186 175 173 174 175 163 147 136 145 141 140 147 153 156 163 166 165 166 170 171 167 157 160 166 164 152 159 162 164
209 238 240 237 250 251 254 241 249 258 288 321 39 311 294 276 186 171 172 168 161 154 154 154 152 152 154 162 164 164 168 168 170 164 143 127 103 91 108 156 170 177 174 168
236 244 248 251 252 236 254 249 244 251 246 273 190 263 282 255 271 220 170 166 162 155 151 152 152 154 162 168 161 154 158 161 163 158 156 155 161 169 185 179 177 177 174 169
239 229 229 242 245 234 236 245 243 242 221 270 285 196 275 268 236 227 184 173 165 162 159 159 160 162 161 156 154 154 146 151 151 155 168 163 159 165 153 145 155 167 181 179
240 244 222 231 246 239 227 265 339 33 80 262 246 187 265 238 220 204 182 176 169 164 158 155 151 145 146 145 154 156 148 150 151 156 167 166 157 153 147 156 169 176 177 193
276 272 261 250 272 289 139 100 26 351 349 249 243 184 245 246 223 190 181 179 171 161 155 153 148 150 154 155 159 163 158 156 161 161 165 171 166 158 163 168 175 172 179 198
229 268 261 235 214 222 210 150 164 199 221 266 303 219 253 281 224 186 164 155 155 159 157 159 165 163 160 159 159 159 158 159 159 157 167 170 161 158 166 168 172 179 189 196
198 251 275 254 231 176 186 195 180 152 188 230 269 276 311 7 37 51 101 134 158 172 165 166 165 155 151 155 155 157 153 149 146 149 151 146 145 149 160 169 173 182 188 188
182 247 285 298 6 350 167 168 97 120 159 229 268 260 250 291 311 62 113 171 174 163 168 166 160 154 154 152 149 153 152 154 148 156 164 152 153 157 158 159 176 184 187 181
166 194 296 345 61 254 7 79 108 137 157 162 219 256 220 210 204 172 181 189 172 155 157 161 159 151 145 141 148 153 148 143 143 167 166 151 154 156 154 168 183 184 182 178
190 144 247 258 253 201 169 171 147 153 224 172 175 253 252 195 197 178 178 181 156 154 155 155 145 139 138 143 146 151 150 143 164 170 159 161 161 161 170 182 185 178 183 186
132 114 61 332 337 8 75 105 137 142 135 169 184 248 271 165 154 164 160 151 132 129 141 142 135 139 144 148 149 154 157 156 164 158 159 161 169 180 191 191 180 176 183 188
108 116 162 200 227 241 314 335 64 119 152 202 219 235 274 262 179 174 139 127 130 130 133 131 137 144 147 150 151 151 154 154 158 155 156 164 184 195 195 189 176 178 181 186
79 100 157 217 235 136 340 328 320 194 191 192 225 229 246 239 198 188 155 131 120 130 141 143 148 148 150 150 149 147 150 151 151 152 160 178 190 186 180 174 178 175 182 195
64 97 62 359 345 20 342 318 309 293 219 197 167 249 280 339 54 98 142 136 129 140 144 141 140 147 155 156 159 156 156 155 149 147 154 172 173 170 179 184 180 167 184 201
118 127 111 240 285 4 306 285 263 359 351 161 181 232 344 42 82 165 170 135 138 145 144 146 157 164 167 166 162 157 155 151 145 144 148 157 168 180 189 181 166 179 189 192
159 132 134 168 66 222 244 271 92 95 38 38 82 26 33 128 168 179 165 153 147 142 141 153 166 164 159 152 143 143 138 138 141 142 148 154 161 168 171 165 180 200 192 189
168 150 136 137 179 254 282 349 52 142 12 359 78 58 45 77 82 24 351 87 133 159 166 158 159 156 147 147 148 138 136 137 138 146 157 168 167 164 174 187 209 213 194 207
113 123 132 144 164 225 246 289 276 125 217 325 41 97 72 65 89 276 324 63 88 93 101 102 109 126 142 156 146 136 141 146 159 172 178 181 173 169 184 202 209 207 187 203
36 64 139 158 189 246 290 303 8 134 231 284 53 112 96 111 192 223 48 61 79 94 95 110 117 120 138 148 140 142 150 165 178 173 162 165 178 185 191 191 177 177 179 181
150 127 149 136 174 244 314 19 100 206 210 133 105 122 109 90 89 87 84 84 82 73 77 105 118 115 120 132 139 145 165 179 158 148 151 162 168 187 187 165 177 174 166 163
89 171 167 169 201 237 15 116 158 136 120 1 119 118 116 106 96 86 88 89 81 81 82 104 122 116 102 107 136 150 173 160 144 139 155 167 165 173 180 169 180 177 173 171
335 34 96 94 240 17 36 68 59 78 96 23 85 122 120 118 121 107 100 82 82 92 105 97 112 117 118 111 113 144 155 146 137 143 161 168 160 168 116 136 164 170 186 187
301 351 56 95 245 11 9 19 23 29 49 55 46 107 138 130 136 142 160 153 131 117 99 105 115 128 147 139 136 138 137 135 139 148 155 161 169 178 158 126 236 198 215 206
335 237 171 221 226 180 244 296 8 53 36 51 42 15 86 140 145 135 167 158 135 128 113 106 106 123 151 154 166 166 149 141 144 152 165 170 171 164 153 146 16 13 6 310